This demonstration page uses our WeatherBlox Daily Observations layout. Learn more.

Left ArrowRight Arrow

39.08367, -84.50855

Hourly Observations for June 30, 2022

Temp ( °F °C ) Dew Point ( °F °C ) Humidity (%) Winds ( mph kmh ) Pressure ( in mb ) Visibility ( mi km ) Precip ( " mm )
12:53 am 00:53 Clear 62 16.7 57 13.9 84 84 Calm 30.23 1024 10 16 0.00 0.00
1:53 am 01:53 Clear 60 15.6 58 14.4 93 93 Calm 30.22 1023 10 16 0.00 0.00
2:53 am 02:53 Clear 59 15 57 13.9 93 93 Calm 30.21 1023 10 16 0.00 0.00
3:53 am 03:53 Clear 58 14.4 57 13.9 97 97 Calm 30.21 1023 10 16 0.00 0.00
4:53 am 04:53 Clear 57 13.9 56 13.3 96 96 Calm 30.20 1023 7 11 0.00 0.00
5:53 am 05:53 Clear with Mist and Fog 56 13.3 55 12.8 97 97 Calm 30.21 1023 6 10 0.00 0.00
6:53 am 06:53 Sunny 57 13.9 56 13.3 96 96 Calm 30.21 1023 9 14 0.00 0.00
7:53 am 07:53 Sunny 61 16.1 58 14.4 90 90 Calm 30.21 1023 10 16 0.00 0.00
8:53 am 08:53 Sunny 68 20 60 15.6 76 76 Calm 30.21 1023 9 14 0.00 0.00
9:53 am 09:53 Sunny 74 23.3 63 17.2 69 69 SSW 3 6 30.20 1023 10 16 0.00 0.00
10:53 am 10:53 Sunny 80 26.7 63 17.2 56 56 Calm 30.18 1022 10 16 0.00 0.00
11:53 am 11:53 Sunny 85 29.4 66 18.9 53 53 SW 5 7 30.16 1021 10 16 0.00 0.00
12:53 pm 12:53 Sunny 87 30.6 59 15 39 39 S 6 9 30.14 1021 10 16 0.00 0.00
1:53 pm 13:53 Sunny 89 31.7 58 14.4 35 35 S 8 13 30.11 1020 10 16 0.00 0.00
2:53 pm 14:53 Sunny 91 32.8 59 15 34 34 S 7 11 30.09 1019 10 16 0.00 0.00
3:53 pm 15:53 Sunny 91 32.8 57 13.9 32 32 SSW 8 13 30.06 1018 10 16 0.00 0.00
4:53 pm 16:53 Sunny 92 33.3 57 13.9 31 31 S 9 15 30.06 1018 10 16 0.00 0.00
5:53 pm 17:53 Sunny 92 33.3 56 13.3 30 30 SW 9 15 30.04 1017 10 16 0.00 0.00
6:53 pm 18:53 Sunny 90 32.2 62 16.7 39 39 S 8 13 30.03 1017 10 16 0.00 0.00
7:53 pm 19:53 Sunny 86 30 64 17.8 48 48 SSE 5 7 30.03 1017 10 16 0.00 0.00
8:53 pm 20:53 Sunny 79 26.1 68 20 69 69 S 3 6 30.03 1017 10 16 0.00 0.00
9:53 pm 21:53 Mostly Clear 75 23.9 67 19.4 76 76 Calm 30.04 1017 10 16 0.00 0.00
10:53 pm 22:53 Partly Cloudy 75 23.9 66 18.9 74 74 Calm 30.04 1017 10 16 0.00 0.00
11:53 pm 23:53 Clear 72 22.2 66 18.9 82 82 SSW 6 9 30.05 1018 10 16 0.00 0.00

Powered by AerisWeather